When you browse on this site, cookies collect data to enhance your experience and personalize the content and advertising you see.
Visit our Privacy Policy to learn more. By continuing to use the site, you agree to this use of cookies and data.
  • In Netherlands
  • List of Countries
  • For 7 days
  • Water Temperature
  • Satellite Maps
  • Weather Map
  • Weather Widgets
  • user-avatar
    Login

    Hourly Weather Żnin

    Today, 26 June, Wednesday

    Time Temperature Precipitation Wind Pressure Humidity
    00:00 +24°C° 0 mm 2 mps 759 mmHg 86%
    01:00 +24°C° 0 mm 2 mps 759 mmHg 85%
    02:00 +24°C° 0 mm 2 mps 759 mmHg 86%
    03:00 +24°C° 0 mm 3 mps 759 mmHg 87%
    04:00 +22°C° 0 mm 3 mps 758 mmHg 88%
    05:00 +25°C° 0 mm 3 mps 758 mmHg 84%
    06:00 +26°C° 0 mm 3 mps 758 mmHg 80%
    07:00 +28°C° 0 mm 3 mps 758 mmHg 76%
    08:00 +29°C° 0 mm 3 mps 758 mmHg 71%
    09:00 +31°C° 0 mm 3 mps 758 mmHg 66%
    10:00 +33°C° 0 mm 3 mps 758 mmHg 60%
    11:00 +34°C° 0 mm 4 mps 758 mmHg 58%
    12:00 +34°C° 0 mm 4 mps 757 mmHg 55%
    13:00 +35°C° 0 mm 5 mps 757 mmHg 53%
    14:00 +35°C° 0 mm 4 mps 757 mmHg 53%
    15:00 +35°C° 0 mm 4 mps 756 mmHg 54%
    16:00 +35°C° 0 mm 4 mps 755 mmHg 54%
    17:00 +34°C° 0 mm 4 mps 755 mmHg 59%
    18:00 +33°C° 0 mm 4 mps 755 mmHg 63%
    19:00 +30°C° 0 mm 4 mps 755 mmHg 68%
    20:00 +28°C° 0.3 mm 4 mps 755 mmHg 75%
    21:00 +26°C° 0.3 mm 4 mps 755 mmHg 82%
    22:00 +23°C° 0.3 mm 5 mps 755 mmHg 89%
    23:00 +22°C° 0 mm 4 mps 755 mmHg 90%

    Tomorrow, 27 June, Thursday

    Time Temperature Precipitation Wind Pressure Humidity
    00:00 +21°C° 0 mm 4 mps 756 mmHg 90%
    01:00 +20°C° 0 mm 4 mps 756 mmHg 91%
    02:00 +19°C° 0 mm 5 mps 756 mmHg 90%
    03:00 +19°C° 0 mm 6 mps 756 mmHg 89%
    04:00 +19°C° 0 mm 6 mps 756 mmHg 87%
    05:00 +17°C° 0 mm 6 mps 756 mmHg 83%
    06:00 +17°C° 0 mm 7 mps 756 mmHg 79%
    07:00 +16°C° 0 mm 7 mps 756 mmHg 75%
    08:00 +17°C° 0 mm 7 mps 756 mmHg 72%
    09:00 +18°C° 0 mm 7 mps 757 mmHg 68%
    10:00 +20°C° 0 mm 7 mps 757 mmHg 64%
    11:00 +20°C° 0 mm 7 mps 757 mmHg 63%
    12:00 +21°C° 0 mm 7 mps 757 mmHg 63%
    13:00 +22°C° 0 mm 8 mps 757 mmHg 62%
    14:00 +22°C° 0 mm 7 mps 757 mmHg 63%
    15:00 +22°C° 0 mm 7 mps 757 mmHg 64%
    16:00 +22°C° 0 mm 7 mps 757 mmHg 65%
    17:00 +21°C° 0 mm 6 mps 757 mmHg 69%
    18:00 +20°C° 0 mm 6 mps 757 mmHg 73%
    19:00 +19°C° 0 mm 5 mps 757 mmHg 77%
    20:00 +18°C° 0 mm 4 mps 757 mmHg 83%
    21:00 +17°C° 0 mm 3 mps 758 mmHg 88%
    22:00 +16°C° 0 mm 3 mps 758 mmHg 94%
    23:00 +15°C° 0 mm 2 mps 758 mmHg 94%

    Day after tomorrow, 28 June, Friday

    Time Temperature Precipitation Wind Pressure Humidity
    00:00 +15°C° 0 mm 2 mps 758 mmHg 95%
    01:00 +14°C° 0 mm 2 mps 758 mmHg 95%
    02:00 +14°C° 0 mm 2 mps 758 mmHg 95%
    03:00 +14°C° 0 mm 2 mps 758 mmHg 94%
    04:00 +14°C° 0 mm 2 mps 758 mmHg 94%
    05:00 +16°C° 0 mm 2 mps 758 mmHg 89%
    06:00 +17°C° 0 mm 2 mps 758 mmHg 84%
    07:00 +19°C° 0 mm 2 mps 758 mmHg 79%
    08:00 +20°C° 0.1 mm 3 mps 758 mmHg 71%
    09:00 +21°C° 0.1 mm 4 mps 758 mmHg 62%
    10:00 +23°C° 0.1 mm 4 mps 758 mmHg 54%
    11:00 +23°C° 0 mm 5 mps 758 mmHg 52%
    12:00 +23°C° 0 mm 5 mps 758 mmHg 50%
    13:00 +25°C° 0 mm 5 mps 758 mmHg 48%
    14:00 +25°C° 0 mm 5 mps 758 mmHg 46%
    15:00 +24°C° 0 mm 6 mps 758 mmHg 44%
    16:00 +23°C° 0 mm 6 mps 759 mmHg 42%
    17:00 +22°C° 0 mm 5 mps 759 mmHg 49%
    18:00 +21°C° 0 mm 4 mps 759 mmHg 56%
    19:00 +20°C° 0 mm 3 mps 759 mmHg 63%
    20:00 +18°C° 0 mm 3 mps 759 mmHg 65%
    21:00 +16°C° 0 mm 2 mps 760 mmHg 67%
    22:00 +15°C° 0 mm 2 mps 760 mmHg 69%
    23:00 +14°C° 0 mm 1 mps 760 mmHg 72%

    29 June, Saturday

    Time Temperature Precipitation Wind Pressure Humidity
    00:00 +13°C° 0 mm 1 mps 760 mmHg 76%
    01:00 +13°C° 0 mm 1 mps 760 mmHg 79%
    02:00 +13°C° 0 mm 1 mps 760 mmHg 79%
    03:00 +13°C° 0 mm 1 mps 760 mmHg 79%
    04:00 +13°C° 0 mm 1 mps 760 mmHg 80%
    05:00 +14°C° 0 mm 2 mps 760 mmHg 75%
    06:00 +16°C° 0 mm 2 mps 760 mmHg 70%
    07:00 +18°C° 0 mm 3 mps 759 mmHg 65%
    08:00 +20°C° 0 mm 3 mps 759 mmHg 61%
    09:00 +21°C° 0 mm 3 mps 759 mmHg 58%
    10:00 +23°C° 0 mm 4 mps 759 mmHg 54%
    11:00 +25°C° 0 mm 4 mps 759 mmHg 51%
    12:00 +25°C° 0 mm 4 mps 759 mmHg 49%
    13:00 +26°C° 0 mm 4 mps 758 mmHg 46%
    14:00 +26°C° 0 mm 4 mps 758 mmHg 46%
    15:00 +27°C° 0 mm 4 mps 758 mmHg 46%
    16:00 +27°C° 0 mm 4 mps 758 mmHg 46%
    17:00 +26°C° 0 mm 3 mps 757 mmHg 52%
    18:00 +25°C° 0 mm 2 mps 757 mmHg 57%
    19:00 +24°C° 0 mm 2 mps 757 mmHg 63%
    20:00 +22°C° 0 mm 1 mps 757 mmHg 65%
    21:00 +21°C° 0 mm 1 mps 757 mmHg 67%
    22:00 +20°C° 0 mm 1 mps 757 mmHg 69%
    23:00 +18°C° 0 mm 2 mps 757 mmHg 69%

    30 June, Sunday

    Time Temperature Precipitation Wind Pressure Humidity
    00:00 +18°C° 0 mm 2 mps 757 mmHg 70%
    01:00 +17°C° 0 mm 2 mps 757 mmHg 70%
    02:00 +17°C° 0 mm 2 mps 756 mmHg 70%
    03:00 +17°C° 0 mm 2 mps 756 mmHg 69%
    04:00 +17°C° 0 mm 2 mps 756 mmHg 69%
    05:00 +18°C° 0 mm 3 mps 756 mmHg 68%
    06:00 +20°C° 0 mm 3 mps 756 mmHg 66%
    07:00 +22°C° 0 mm 3 mps 756 mmHg 65%
    08:00 +24°C° 0 mm 3 mps 756 mmHg 60%
    09:00 +26°C° 0 mm 4 mps 756 mmHg 55%
    10:00 +28°C° 0 mm 4 mps 755 mmHg 50%
    11:00 +29°C° 0 mm 4 mps 755 mmHg 48%
    12:00 +30°C° 0 mm 5 mps 755 mmHg 46%
    13:00 +30°C° 0 mm 5 mps 754 mmHg 45%
    14:00 +32°C° 0 mm 5 mps 754 mmHg 46%
    15:00 +32°C° 0 mm 6 mps 753 mmHg 47%
    16:00 +32°C° 0 mm 6 mps 753 mmHg 48%
    17:00 +30°C° 0 mm 5 mps 752 mmHg 54%
    18:00 +28°C° 0 mm 5 mps 752 mmHg 59%
    19:00 +27°C° 0 mm 4 mps 752 mmHg 65%
    20:00 +26°C° 0 mm 5 mps 752 mmHg 64%
    21:00 +25°C° 0 mm 5 mps 752 mmHg 64%
    22:00 +23°C° 0 mm 5 mps 752 mmHg 63%
    23:00 +22°C° 0 mm 4 mps 752 mmHg 71%

    1 July, Monday

    Time Temperature Precipitation Wind Pressure Humidity
    00:00 +21°C° 0 mm 4 mps 752 mmHg 78%
    01:00 +19°C° 0 mm 3 mps 752 mmHg 86%
    02:00 +19°C° 0 mm 3 mps 753 mmHg 85%
    03:00 +18°C° 0 mm 2 mps 753 mmHg 84%
    04:00 +18°C° 0 mm 2 mps 753 mmHg 83%
    05:00 +18°C° 0 mm 3 mps 753 mmHg 78%
    06:00 +19°C° 0 mm 3 mps 753 mmHg 74%
    07:00 +20°C° 0 mm 4 mps 754 mmHg 70%
    08:00 +21°C° 0 mm 4 mps 754 mmHg 64%
    09:00 +22°C° 0 mm 5 mps 754 mmHg 59%
    10:00 +23°C° 0 mm 5 mps 754 mmHg 54%
    11:00 +25°C° 0 mm 5 mps 753 mmHg 51%
    12:00 +26°C° 0 mm 5 mps 753 mmHg 49%
    13:00 +27°C° 0 mm 5 mps 753 mmHg 46%
    14:00 +26°C° 0 mm 5 mps 752 mmHg 49%
    15:00 +26°C° 0 mm 4 mps 752 mmHg 51%
    16:00 +26°C° 0 mm 3 mps 751 mmHg 54%
    17:00 +25°C° 0 mm 3 mps 751 mmHg 57%
    18:00 +24°C° 0 mm 2 mps 751 mmHg 61%
    19:00 +23°C° 0 mm 2 mps 751 mmHg 65%
    20:00 +21°C° 0 mm 2 mps 751 mmHg 67%
    21:00 +19°C° 0 mm 2 mps 751 mmHg 70%
    22:00 +18°C° 0 mm 2 mps 751 mmHg 72%
    23:00 +17°C° 0 mm 3 mps 751 mmHg 77%
    Show more